Location: Marysville Observatory
(48.1092°N, 122.1645°W)
Time: 20:49:58
(UTC-08:00)

Amateur Radio Satellites - All Passes

Search period start: 29 January 2015 20:19
Search period end: 30 January 2015 20:19
Location: Marysville Observatory, 48.1092°N, 122.1645°W

Satellite Date Start Highest point End Downlink Frequencies (MHz)
Time Altitude Azimuth
AAUSAT CUBESAT 2 29 Jan 20:22:51 20:27:04 82° 76° (ENE) 20:31:18 437.432
SO-50 29 Jan 20:25:52 20:28:36 14° 250° (WSW) 20:31:08 436.795
GOMX 1 29 Jan 20:26:25 20:31:33 69° 259° (WSW) 20:37:01 467.674
UWE-3 29 Jan 20:29:50 20:34:03 34° 68° (ENE) 20:38:20 435.000/436.395/437.385
AISAT 29 Jan 20:30:50 20:33:31 16° 60° (ENE) 20:36:22 437.250
BRITE-PL 29 Jan 20:34:23 20:39:19 44° 264° (W) 20:44:35 437.365/2234.400
DOVE 4 29 Jan 20:35:55 20:41:02 74° 259° (W) 20:46:22 437.250
CUTE 1.7 + AOD 2 29 Jan 20:37:16 20:41:25 46° 261° (W) 20:45:34 437.475
Oscar 11 29 Jan 20:40:27 20:44:45 65° 73° (ENE) 20:49:05 145.826/435.025
VELOX 1 29 Jan 20:57:36 21:01:16 26° 65° (ENE) 21:05:02 145.980
YUBILEINY 29 Jan 20:59:32 21:07:49 45° 291° (WNW) 21:16:06 435.215
50 SAT 29 Jan 21:01:52 21:05:13 25° 66° (ENE) 21:08:38 437.505
CUBEBUG 1 29 Jan 21:05:38 21:07:59 15° 59° (ENE) 21:10:29 437.445
SEEDS 29 Jan 21:07:45 21:11:24 27° 266° (W) 21:15:02 437.485
UKube-1 29 Jan 21:16:07 21:20:27 88° 255° (WSW) 21:24:50 .
HO-68 29 Jan 21:20:03 21:26:13 30° 268° (W) 21:32:16 435.675
CUBEBUG 2 29 Jan 21:26:58 21:31:42 64° 259° (W) 21:36:30 437.445
HUMSAT D 29 Jan 21:30:10 21:34:28 61° 73° (ENE) 21:38:47 437.325/437.525
UNISAT 6 29 Jan 21:31:17 21:32:22 11° 84° (E) 21:33:42 437.425
ZACube-1 29 Jan 21:31:51 21:36:29 77° 258° (WSW) 21:41:07 437.345
AIST 1 29 Jan 21:34:11 21:38:01 30° 71° (ENE) 21:41:54
COMPASS 1 29 Jan 21:34:19 21:37:17 18° 270° (W) 21:40:07 437.405
DX 1 29 Jan 21:37:50 21:42:06 52° 260° (W) 21:46:24 434.975-435.025
FUNcube-1 29 Jan 21:43:42 21:48:16 60° 260° (W) 21:52:50 145.935
DELFI C3 29 Jan 21:50:42 21:54:18 29° 265° (W) 21:57:51 145.870
CINEMA 3 29 Jan 21:57:03 22:01:07 24° 270° (W) 22:05:09 145.822/145.860
AAUSAT CUBESAT 2 29 Jan 22:02:08 22:03:25 11° 275° (W) 22:04:27 437.432
AISAT 29 Jan 22:05:14 22:09:41 71° 257° (WSW) 22:14:11 437.250
ANTELSAT 29 Jan 22:05:22 22:08:59 24° 92° (E) 22:12:36 437.575/2403.000
UWE-3 29 Jan 22:06:23 22:10:37 32° 266° (W) 22:14:50 435.000/436.395/437.385
GOMX 1 29 Jan 22:10:08 22:10:55 10° 281° (W) 22:11:21 467.674
ESTCUBE 1 29 Jan 22:10:11 22:14:35 60° 72° (ENE) 22:19:02 437.505/2401.250
TIGRISAT 29 Jan 22:12:35 22:16:25 28° 93° (E) 22:20:12 435.000
ISS 29 Jan 22:13:45 22:16:51 41° 147° (SSE) 22:19:59 145.825
NANOSAT C BR1 29 Jan 22:15:33 22:18:33 19° 90° (E) 22:21:38 145.865
DOVE 4 29 Jan 22:18:17 22:19:53 11° 279° (W) 22:21:10 437.250
Oscar 11 29 Jan 22:18:54 22:21:27 15° 272° (W) 22:23:50 145.826/435.025
SPROUT 29 Jan 22:23:20 22:26:37 22° 64° (ENE) 22:30:00 437.525
QB50P2 29 Jan 22:29:51 22:33:28 26° 94° (E) 22:37:06 145.880/145.840
VELOX 1 29 Jan 22:33:34 22:37:44 38° 263° (W) 22:41:55 145.980
50 SAT 29 Jan 22:36:22 22:40:12 36° 263° (W) 22:44:03 437.505
QB50P1 29 Jan 22:38:47 22:42:38 31° 95° (E) 22:46:30 145.935-145.965
CUBEBUG 1 29 Jan 22:39:29 22:43:51 76° 257° (WSW) 22:48:16 437.445
BUGSAT 1 29 Jan 22:46:59 22:50:46 30° 95° (E) 22:54:34 437.445
POLYITAN 1 29 Jan 22:53:51 22:58:01 44° 98° (E) 23:02:10 437.675
UKube-1 29 Jan 22:56:46 22:57:24 10° 275° (W) 22:57:46 .
TISAT 1 29 Jan 22:57:12 23:01:14 43° 70° (ENE) 23:05:20 437.305
YUBILEINY 29 Jan 23:04:56 23:07:45 11° 319° (NW) 23:10:04 435.215
UNISAT 6 29 Jan 23:05:27 23:09:59 88° 283° (WNW) 23:14:21 437.425
HUMSAT D 29 Jan 23:07:58 23:10:44 16° 272° (W) 23:13:19 437.325/437.525
AIST 1 29 Jan 23:11:54 23:15:41 29° 270° (W) 23:19:26
POPSAT HIP 1 29 Jan 23:13:25 23:17:46 70° 101° (ESE) 23:22:03 437.405
GONETS M04 29 Jan 23:15:10 23:18:20 13° 72° (ENE) 23:22:06
DUCHIFAT 1 29 Jan 23:15:40 23:20:00 73° 102° (ESE) 23:24:17 145.980
SWISSCUBE 29 Jan 23:41:41 23:45:36 27° 64° (ENE) 23:49:38 437.505
ANTELSAT 29 Jan 23:41:46 23:45:59 40° 291° (WNW) 23:50:04 437.575/2403.000
ESTCUBE 1 29 Jan 23:48:59 23:51:56 17° 271° (W) 23:54:46 437.505/2401.250
TIGRISAT 29 Jan 23:49:10 23:53:17 35° 292° (WNW) 23:57:14 435.000
ISS 29 Jan 23:50:04 23:53:18 55° 346° (NNW) 23:56:34 145.825
NANOSAT C BR1 29 Jan 23:50:34 23:54:46 50° 289° (WNW) 23:58:55 145.865
BEESAT 29 Jan 23:56:58 00:01:13 33° 66° (ENE) 00:05:30 436.000
SPROUT 29 Jan 23:58:19 00:02:29 45° 262° (W) 00:06:41 437.525
ITUPSAT 1 30 Jan 00:01:15 00:05:34 36° 66° (ENE) 00:09:56 437.325
O/OREOS (USA 219) 30 Jan 00:03:31 00:06:17 16° 43° (NE) 00:09:11 437.305
QB50P2 30 Jan 00:05:31 00:09:29 36° 292° (WNW) 00:13:24 145.880/145.840
KKS-1 30 Jan 00:09:12 00:10:08 11° 56° (NE) 00:11:14 437.445
QB50P1 30 Jan 00:14:43 00:18:31 30° 293° (WNW) 00:22:14 145.935-145.965
BUGSAT 1 30 Jan 00:22:27 00:26:16 31° 293° (WNW) 00:30:03 437.445
POLYITAN 1 30 Jan 00:30:21 00:33:44 22° 296° (WNW) 00:37:02 437.675
TISAT 1 30 Jan 00:34:02 00:37:19 21° 269° (W) 00:40:32 437.305
UNISAT 6 30 Jan 00:44:07 00:46:07 13° 303° (WNW) 00:47:56 437.425
Oscar 19 30 Jan 00:48:12 00:52:12 23° 91° (E) 00:56:18 437.125/150
POPSAT HIP 1 30 Jan 00:50:35 00:53:12 15° 300° (WNW) 00:55:40 437.405
AUBIESAT-1 30 Jan 00:50:45 00:51:25 10° 55° (NE) 00:52:14 437.475
DUCHIFAT 1 30 Jan 00:52:53 00:55:22 15° 300° (WNW) 00:57:43 145.980
GONETS M04 30 Jan 01:04:57 01:13:29 61° 93° (E) 01:22:03
ITAMSAT 1 30 Jan 01:07:23 01:09:29 13° 85° (E) 01:11:53 435.822/435.867
SWISSCUBE 30 Jan 01:18:48 01:23:20 42° 262° (W) 01:27:53 437.505
ISS 30 Jan 01:26:55 01:30:08 45° 7° (N) 01:33:19 145.825
STARS 30 Jan 01:33:41 01:37:51 41° 69° (ENE) 01:42:05 437.465
BEESAT 30 Jan 01:34:45 01:39:05 33° 264° (W) 01:43:23 436.000
ITUPSAT 1 30 Jan 01:39:16 01:43:31 31° 265° (W) 01:47:45 437.325
KKS-1 30 Jan 01:41:34 01:46:02 71° 73° (ENE) 01:50:33 437.445
O/OREOS (USA 219) 30 Jan 01:41:49 01:46:27 90° 63° (ENE) 01:51:03 437.305
M-CUBED/EXP-1 PRIME 30 Jan 01:49:43 01:53:27 44° 66° (ENE) 01:56:56 437.505
BEESAT 2 30 Jan 01:53:03 01:56:36 28° 117° (ESE) 02:00:14 435.950
AIST 2 30 Jan 01:54:47 01:56:59 14° 111° (ESE) 01:59:21 435.215
BEESAT 3 30 Jan 02:05:54 02:09:47 42° 121° (ESE) 02:13:45 437.485
Gurwin Techsat 1B 30 Jan 02:07:24 02:12:04 31° 94° (E) 02:16:46 435.225
DANDE 30 Jan 02:12:29 02:15:26 13° 74° (ENE) 02:18:58 436.750
AUBIESAT-1 30 Jan 02:22:02 02:25:57 89° 247° (WSW) 02:29:34 437.475
AO-7 30 Jan 02:23:11 02:24:25 11° 78° (ENE) 02:26:24 29.400- 29.500
Oscar 19 30 Jan 02:26:54 02:31:56 54° 291° (WNW) 02:36:56 437.125/150
CUSAT 1 30 Jan 02:33:50 02:39:26 21° 81° (E) 02:45:19 437.405
ITAMSAT 1 30 Jan 02:44:38 02:49:55 85° 103° (ESE) 02:55:10 435.822/435.867
RS-15 30 Jan 02:55:47 03:01:18 16° 98° (E) 03:07:35 29.354- 29.394
GONETS M04 30 Jan 03:02:58 03:10:56 36° 295° (WNW) 03:18:45
ISS 30 Jan 03:03:27 03:06:46 75° 206° (SSW) 03:10:04 145.825
STARS 30 Jan 03:10:52 03:14:31 24° 267° (W) 03:18:08 437.465
PCSat 30 Jan 03:19:34 03:23:24 21° 108° (ESE) 03:27:25 145.827
HORYU 2 30 Jan 03:19:39 03:23:55 43° 98° (E) 03:28:09 437.375
KKS-1 30 Jan 03:20:45 03:23:17 14° 273° (W) 03:25:38 437.445
O/OREOS (USA 219) 30 Jan 03:23:34 03:25:14 12° 262° (W) 03:26:40 437.305
JAS-2 30 Jan 03:24:35 03:27:01 13° 85° (E) 03:29:53 435.910
M-CUBED/EXP-1 PRIME 30 Jan 03:25:56 03:28:38 17° 261° (W) 03:31:07 437.505
MOZHAYETS 4 30 Jan 03:27:08 03:31:23 39° 69° (ENE) 03:35:40
BEESAT 2 30 Jan 03:30:46 03:34:43 40° 316° (NW) 03:38:42 435.950
AIST 2 30 Jan 03:30:47 03:35:04 80° 308° (NW) 03:39:25 435.215
BEESAT 3 30 Jan 03:44:22 03:48:04 30° 321° (NW) 03:51:46 437.485
Gurwin Techsat 1B 30 Jan 03:47:11 03:52:13 43° 293° (WNW) 03:57:12 435.225
DANDE 30 Jan 03:49:17 03:57:20 53° 93° (E) 04:05:36 436.750
AO-7 30 Jan 04:11:22 04:19:32 55° 101° (ESE) 04:27:39 29.400- 29.500
CUSAT 1 30 Jan 04:13:10 04:21:32 80° 99° (E) 04:29:49 437.405
STRAND 1 30 Jan 04:17:08 04:19:06 12° 54° (NE) 04:21:17 437.568
ITAMSAT 1 30 Jan 04:25:25 04:28:50 17° 303° (WNW) 04:32:05 435.822/435.867
ISS 30 Jan 04:40:49 04:42:50 15° 223° (SW) 04:44:46 145.825
HORYU 2 30 Jan 04:56:47 05:00:24 24° 296° (WNW) 05:03:53 437.375
Cubesat XI-IV 30 Jan 04:58:06 04:59:07 11° 83° (E) 05:00:29 437.490
PRISM 30 Jan 05:00:44 05:04:34 39° 69° (ENE) 05:08:26 437.425
PCSat 30 Jan 05:00:55 05:06:21 73° 307° (NW) 05:11:48 145.827
RS-15 30 Jan 05:00:56 05:11:38 67° 120° (ESE) 05:22:32 29.354- 29.394
MOZHAYETS 4 30 Jan 05:04:54 05:08:46 26° 267° (W) 05:12:36
JAS-2 30 Jan 05:07:24 05:13:02 80° 104° (ESE) 05:19:21 435.910
YUBILEINY 30 Jan 05:08:00 05:15:21 30° 61° (ENE) 05:22:53 435.215
AIST 2 30 Jan 05:11:21 05:14:23 18° 330° (NNW) 05:17:24 435.215
BEESAT 2 30 Jan 05:12:18 05:14:04 12° 339° (NNW) 05:15:45 435.950
CUTE-I 30 Jan 05:16:04 05:19:13 16° 87° (E) 05:22:34 437.470
CUBESAT XI-V 30 Jan 05:22:08 05:26:32 46° 70° (ENE) 05:31:00 437.345
BEESAT 3 30 Jan 05:26:51 05:27:32 10° 343° (NNW) 05:28:08 437.485
DANDE 30 Jan 05:32:53 05:41:02 46° 293° (WNW) 05:49:08 436.750
STRAND 1 30 Jan 05:52:25 05:57:29 70° 72° (ENE) 06:02:36 437.568
CUSAT 1 30 Jan 05:58:07 06:05:26 31° 299° (WNW) 06:12:23 437.405
AO-7 30 Jan 06:04:29 06:12:13 43° 302° (WNW) 06:19:49 29.400- 29.500
Cubesat XI-IV 30 Jan 06:34:56 06:40:20 72° 102° (ESE) 06:45:43 437.490
PRISM 30 Jan 06:37:04 06:40:17 21° 267° (W) 06:43:26 437.425
PCSat 30 Jan 06:46:46 06:50:45 20° 329° (NNW) 06:54:40 145.827
JAS-2 30 Jan 06:53:45 06:57:45 20° 300° (WNW) 07:01:51 435.910
CUTE-I 30 Jan 06:54:39 07:00:03 82° 287° (WNW) 07:05:27 437.470
CUBESAT XI-V 30 Jan 07:00:38 07:04:17 22° 269° (W) 07:07:51 437.345
YUBILEINY 30 Jan 07:04:25 07:13:12 75° 264° (W) 07:21:57 435.215
RS-15 30 Jan 07:14:02 07:24:36 50° 327° (NNW) 07:35:24 29.354- 29.394
DANDE 30 Jan 07:22:41 07:26:56 14° 316° (NW) 07:30:40 436.750
STRAND 1 30 Jan 07:33:49 07:37:18 18° 272° (W) 07:40:36 437.568
CANX-2 30 Jan 07:56:16 07:58:38 15° 88° (E) 08:01:10 2200.000
AO-7 30 Jan 07:59:07 08:02:58 14° 326° (NW) 08:06:31 29.400- 29.500
AAUSAT CUBESAT 2 30 Jan 08:05:43 08:06:09 10° 85° (E) 08:06:49 437.432
Cubesat XI-IV 30 Jan 08:16:00 08:19:58 21° 301° (WNW) 08:23:48 437.490
CUTE 1.7 + AOD 2 30 Jan 08:19:31 08:22:54 23° 92° (E) 08:26:20 437.475
GOMX 1 30 Jan 08:25:19 08:30:11 32° 92° (E) 08:34:53 467.674
BEESAT 2 30 Jan 08:31:47 08:34:11 15° 26° (NNE) 08:36:39 435.950
DOVE 4 30 Jan 08:32:26 08:36:49 27° 91° (E) 08:41:05 437.250
UNISAT 6 30 Jan 08:32:49 08:35:58 18° 61° (ENE) 08:39:13 437.425
PHONESAT 2.4 30 Jan 08:33:06 08:33:12 10° 154° (SSE) 08:33:23 2401.200-2431.200
AIST 2 30 Jan 08:33:57 08:35:19 11° 18° (NNE) 08:36:45 435.215
BRITE-PL 30 Jan 08:35:23 08:40:59 54° 98° (E) 08:46:22 437.365/2234.400
PCSat 30 Jan 08:35:44 08:36:26 10° 355° (N) 08:37:06 145.827
CUTE-I 30 Jan 08:36:18 08:39:25 15° 305° (NW) 08:42:21 437.470
POPSAT HIP 1 30 Jan 08:37:22 08:38:43 12° 58° (ENE) 08:40:16 437.405
DUCHIFAT 1 30 Jan 08:39:12 08:40:41 12° 58° (ENE) 08:42:20 145.980
HO-68 30 Jan 08:42:09 08:49:00 47° 98° (E) 08:55:54 435.675
BEESAT 3 30 Jan 08:44:32 08:47:25 18° 30° (NNE) 08:50:21 437.485
SEEDS 30 Jan 08:48:12 08:52:09 38° 97° (E) 08:56:05 437.485
UKube-1 30 Jan 09:02:19 09:03:58 12° 87° (E) 09:05:50 .
VERMONT LUNAR 30 Jan 09:02:43 09:05:05 17° 165° (SSE) 09:07:30 437.305
YUBILEINY 30 Jan 09:03:16 09:08:40 17° 285° (WNW) 09:13:37 435.215
SO-50 30 Jan 09:04:29 09:06:23 13° 109° (ESE) 09:08:31 436.795
ANTELSAT 30 Jan 09:07:33 09:11:49 35° 68° (ENE) 09:16:06 437.575/2403.000
NANOSAT C BR1 30 Jan 09:11:52 09:15:14 23° 64° (ENE) 09:18:41 145.865
COMPASS 1 30 Jan 09:12:58 09:17:06 59° 100° (E) 09:21:12 437.405
TIGRISAT 30 Jan 09:14:27 09:18:50 40° 69° (ENE) 09:23:13 435.000
CUBEBUG 2 30 Jan 09:15:40 09:19:14 22° 90° (E) 09:22:47 437.445
ZACube-1 30 Jan 09:18:33 09:21:21 17° 88° (E) 09:24:14 437.345
DX 1 30 Jan 09:23:17 09:26:34 21° 92° (E) 09:29:57 434.975-435.025
QB50P2 30 Jan 09:26:22 09:30:11 32° 67° (ENE) 09:34:03 145.880/145.840
DELFI C3 30 Jan 09:27:06 09:30:41 30° 95° (E) 09:34:16 145.870
FUNcube-1 30 Jan 09:29:44 09:33:04 21° 90° (E) 09:36:26 145.935
RS-15 30 Jan 09:30:26 09:40:10 34° 359° (N) 09:50:12 29.354- 29.394
CANX-2 30 Jan 09:30:52 09:35:04 60° 287° (WNW) 09:39:14 2200.000
QB50P1 30 Jan 09:35:05 09:39:02 38° 69° (ENE) 09:43:04 145.935-145.965
AAUSAT CUBESAT 2 30 Jan 09:38:21 09:42:32 85° 286° (WNW) 09:46:41 437.432
BUGSAT 1 30 Jan 09:40:47 09:44:29 33° 68° (ENE) 09:48:17 437.445
CINEMA 3 30 Jan 09:47:37 09:52:33 74° 102° (ESE) 09:57:13 145.822/145.860
POLYITAN 1 30 Jan 09:50:25 09:54:37 54° 72° (ENE) 09:58:52 437.675
UWE-3 30 Jan 09:52:43 09:57:02 42° 97° (E) 10:01:13 435.000/436.395/437.385
AISAT 30 Jan 09:53:41 09:56:43 18° 90° (E) 09:59:52 437.250
CUTE 1.7 + AOD 2 30 Jan 09:55:04 09:59:01 38° 291° (WNW) 10:02:54 437.475
Oscar 11 30 Jan 10:00:21 10:04:42 81° 103° (ESE) 10:09:01 145.826/435.025
GOMX 1 30 Jan 10:03:16 10:08:25 42° 292° (WNW) 10:13:19 467.674
UNISAT 6 30 Jan 10:07:38 10:12:20 66° 259° (WSW) 10:17:02 437.425
PHONESAT 2.4 30 Jan 10:08:10 10:11:00 22° 170° (S) 10:13:51 2401.200-2431.200
BEESAT 2 30 Jan 10:09:08 10:13:18 59° 48° (NE) 10:17:24 435.950
AIST 1 30 Jan 10:09:17 10:11:34 15° 85° (E) 10:14:01
POPSAT HIP 1 30 Jan 10:09:41 10:13:59 83° 75° (ENE) 10:18:20 437.405
DOVE 4 30 Jan 10:09:48 10:14:50 46° 291° (WNW) 10:19:36 437.250
AIST 2 30 Jan 10:11:18 10:15:14 33° 41° (NE) 10:19:08 435.215
DUCHIFAT 1 30 Jan 10:11:37 10:15:54 86° 76° (ENE) 10:20:14 145.980
50 SAT 30 Jan 10:12:32 10:15:48 23° 93° (E) 10:19:04 437.505
BRITE-PL 30 Jan 10:14:21 10:19:11 28° 297° (WNW) 10:23:48 437.365/2234.400
PCSat 30 Jan 10:19:34 10:22:21 14° 21° (NNE) 10:25:14 145.827
VELOX 1 30 Jan 10:20:38 10:24:38 31° 95° (E) 10:28:39 145.980
BEESAT 3 30 Jan 10:22:01 10:26:13 84° 52° (NE) 10:30:21 437.485
SEEDS 30 Jan 10:24:26 10:27:49 23° 295° (WNW) 10:31:08 437.485
CUBEBUG 1 30 Jan 10:26:06 10:28:49 16° 89° (E) 10:31:42 437.445
HO-68 30 Jan 10:30:05 10:36:44 42° 299° (WNW) 10:43:19 435.675
UKube-1 30 Jan 10:36:24 10:40:48 80° 286° (WNW) 10:45:09 .
VERMONT LUNAR 30 Jan 10:39:44 10:42:36 23° 181° (S) 10:45:27 437.305
SO-50 30 Jan 10:41:36 10:46:13 84° 127° (SE) 10:51:01 436.795
ANTELSAT 30 Jan 10:44:28 10:48:40 31° 266° (W) 10:52:49 437.575/2403.000
NANOSAT C BR1 30 Jan 10:46:51 10:50:55 41° 262° (W) 10:55:01 145.865
HUMSAT D 30 Jan 10:46:56 10:51:13 72° 102° (ESE) 10:55:23 437.325/437.525
COMPASS 1 30 Jan 10:49:44 10:52:27 17° 298° (WNW) 10:55:01 437.405
TIGRISAT 30 Jan 10:51:40 10:55:44 27° 267° (W) 10:59:41 435.000
CUBEBUG 2 30 Jan 10:51:49 10:56:14 45° 290° (WNW) 11:00:28 437.445
ZACube-1 30 Jan 10:53:48 10:58:13 58° 287° (WNW) 11:02:27 437.345
DX 1 30 Jan 10:58:52 11:03:06 46° 291° (WNW) 11:07:19 434.975-435.025
QB50P2 30 Jan 11:02:20 11:06:07 29° 265° (W) 11:09:54 145.880/145.840
DELFI C3 30 Jan 11:02:24 11:05:54 28° 293° (WNW) 11:09:19 145.870
FUNcube-1 30 Jan 11:05:26 11:09:43 45° 290° (WNW) 11:13:50 145.935
GONETS M04 30 Jan 11:10:42 11:18:33 37° 65° (ENE) 11:26:31
QB50P1 30 Jan 11:11:32 11:15:05 24° 267° (W) 11:18:36 145.935-145.965
AAUSAT CUBESAT 2 30 Jan 11:16:22 11:17:35 11° 302° (WNW) 11:18:36 437.432
BUGSAT 1 30 Jan 11:16:33 11:20:04 26° 266° (W) 11:23:35 437.445
CINEMA 3 30 Jan 11:25:58 11:29:12 17° 301° (WNW) 11:32:12 145.822/145.860
POLYITAN 1 30 Jan 11:28:00 11:30:57 17° 271° (W) 11:33:48 437.675
AISAT 30 Jan 11:29:19 11:33:46 57° 289° (WNW) 11:38:11 437.250
UWE-3 30 Jan 11:29:42 11:33:23 24° 296° (WNW) 11:36:54 435.000/436.395/437.385
ESTCUBE 1 30 Jan 11:36:05 11:40:38 81° 103° (ESE) 11:45:10 437.505/2401.250
Oscar 11 30 Jan 11:38:09 11:40:21 14° 301° (WNW) 11:42:23 145.826/435.025
SPROUT 30 Jan 11:41:52 11:45:26 24° 93° (E) 11:49:01 437.525
AIST 1 30 Jan 11:44:35 11:48:48 58° 283° (WNW) 11:53:02
RS-15 30 Jan 11:45:07 11:55:50 49° 32° (NNE) 12:07:05 29.354- 29.394
PHONESAT 2.4 30 Jan 11:46:02 11:48:59 23° 187° (S) 11:51:55 2401.200-2431.200
50 SAT 30 Jan 11:47:18 11:51:02 35° 291° (WNW) 11:54:42 437.505
BEESAT 2 30 Jan 11:48:10 11:51:10 19° 246° (WSW) 11:54:03 435.950
POPSAT HIP 1 30 Jan 11:49:08 11:50:35 11° 275° (W) 11:51:50 437.405
AIST 2 30 Jan 11:49:55 11:53:56 38° 240° (WSW) 11:57:52 435.215
DUCHIFAT 1 30 Jan 11:51:19 11:52:30 11° 275° (W) 11:53:26 145.980
Gurwin Techsat 1B 30 Jan 11:56:02 11:58:04 12° 53° (NE) 12:00:19 435.225
VELOX 1 30 Jan 11:57:12 12:01:15 32° 293° (WNW) 12:05:14 145.980
CUBEBUG 1 30 Jan 12:01:15 12:05:40 61° 288° (WNW) 12:10:04 437.445
BEESAT 3 30 Jan 12:01:52 12:03:48 13° 249° (WSW) 12:05:33 437.485
PCSat 30 Jan 12:02:13 12:07:20 40° 45° (NE) 12:12:28 145.827
Oscar 19 30 Jan 12:08:14 12:13:11 48° 69° (ENE) 12:18:11 437.125/150
TISAT 1 30 Jan 12:14:08 12:18:20 49° 100° (E) 12:22:30 437.305
UKube-1 30 Jan 12:14:49 12:16:18 11° 304° (WNW) 12:17:35 .
VERMONT LUNAR 30 Jan 12:17:54 12:20:04 15° 198° (SSW) 12:22:11 437.305
HO-68 30 Jan 12:20:36 12:22:45 11° 320° (NW) 12:24:37 435.675
SO-50 30 Jan 12:23:37 12:27:24 23° 329° (NNW) 12:31:14 436.795
HUMSAT D 30 Jan 12:24:06 12:26:31 15° 300° (WNW) 12:28:47 437.325/437.525
ITAMSAT 1 30 Jan 12:27:57 12:32:20 29° 63° (ENE) 12:36:47 435.822/435.867
DANDE 30 Jan 12:49:56 12:51:40 11° 40° (NE) 12:53:38 436.750
GONETS M04 30 Jan 13:07:26 13:15:56 59° 268° (W) 13:24:21
CUSAT 1 30 Jan 13:10:52 13:14:27 15° 48° (NE) 13:17:48 437.405
ESTCUBE 1 30 Jan 13:14:25 13:16:58 15° 301° (WNW) 13:19:23 437.505/2401.250
SWISSCUBE 30 Jan 13:15:26 13:19:52 37° 97° (E) 13:24:20 437.505
SPROUT 30 Jan 13:17:36 13:21:40 38° 291° (WNW) 13:25:41 437.525
AO-7 30 Jan 13:23:44 13:30:23 28° 50° (NE) 13:37:12 29.400- 29.500
PHONESAT 2.4 30 Jan 13:25:17 13:26:50 12° 203° (SSW) 13:28:20 2401.200-2431.200
BEESAT 30 Jan 13:30:52 13:35:30 48° 99° (E) 13:40:07 436.000
KKS-1 30 Jan 13:31:54 13:32:53 11° 85° (E) 13:34:09 437.445
Gurwin Techsat 1B 30 Jan 13:31:55 13:37:10 67° 72° (ENE) 13:42:28 435.225
ITUPSAT 1 30 Jan 13:35:36 13:40:18 52° 100° (E) 13:44:59 437.325
PCSat 30 Jan 13:45:44 13:50:48 41° 245° (WSW) 13:55:50 145.827
Oscar 19 30 Jan 13:48:24 13:52:48 27° 268° (W) 13:57:08 437.125/150
TISAT 1 30 Jan 13:50:39 13:53:52 20° 297° (WNW) 13:57:00 437.305
RS-15 30 Jan 13:57:52 14:09:07 73° 238° (WSW) 14:20:51 29.354- 29.394
ITAMSAT 1 30 Jan 14:06:41 14:11:40 46° 261° (W) 14:16:40 435.822/435.867
SO-50 30 Jan 14:07:59 14:09:42 12° 353° (N) 14:11:24 436.795
HORYU 2 30 Jan 14:21:22 14:25:49 63° 72° (ENE) 14:30:18 437.375
DANDE 30 Jan 14:30:53 14:37:39 47° 68° (ENE) 14:42:45 436.750
CUSAT 1 30 Jan 14:52:38 14:59:12 78° 76° (ENE) 15:04:00 437.405
SWISSCUBE 30 Jan 14:53:29 14:57:41 30° 295° (WNW) 15:01:49 437.505
STARS 30 Jan 14:56:16 15:00:37 49° 99° (E) 15:04:56 437.465
M-CUBED/EXP-1 PRIME 30 Jan 15:03:45 15:05:52 16° 98° (E) 15:08:04 437.505
KKS-1 30 Jan 15:05:48 15:10:20 89° 104° (ESE) 15:14:49 437.445
GONETS M04 30 Jan 15:07:41 15:11:01 12° 289° (WNW) 15:13:46
BEESAT 30 Jan 15:09:14 15:13:07 25° 297° (WNW) 15:16:55 436.000
Gurwin Techsat 1B 30 Jan 15:13:51 15:17:43 20° 271° (W) 15:21:26 435.225
AO-7 30 Jan 15:13:57 15:22:22 87° 251° (WSW) 15:30:49 29.400- 29.500
ITUPSAT 1 30 Jan 15:14:08 15:17:55 23° 298° (WNW) 15:21:36 437.325
JAS-2 30 Jan 15:24:13 15:29:19 48° 69° (ENE) 15:34:18 435.910
AUBIESAT-1 30 Jan 15:35:02 15:38:04 32° 104° (ESE) 15:41:11 437.475
SO-50 30 Jan 15:49:38 15:52:18 14° 18° (NNE) 15:55:01 436.795
O/OREOS (USA 219) 30 Jan 15:57:32 16:01:54 52° 110° (ESE) 16:06:20 437.305
HORYU 2 30 Jan 16:00:08 16:02:59 16° 271° (W) 16:05:42 437.375
RS-15 30 Jan 16:12:05 16:19:50 20° 260° (W) 16:27:06 29.354- 29.394
DANDE 30 Jan 16:14:54 16:20:45 31° 275° (W) 16:25:16 436.750
Cubesat XI-IV 30 Jan 16:21:59 16:26:21 27° 62° (ENE) 16:30:51 437.490
STARS 30 Jan 16:33:24 16:36:49 22° 297° (WNW) 16:40:09 437.465
CUSAT 1 30 Jan 16:37:16 16:41:03 17° 282° (WNW) 16:44:05 437.405
M-CUBED/EXP-1 PRIME 30 Jan 16:37:59 16:41:05 36° 295° (WNW) 16:44:12 437.505
CUTE-I 30 Jan 16:40:57 16:45:46 37° 66° (ENE) 16:50:41 437.470
KKS-1 30 Jan 16:44:08 16:46:23 13° 302° (WNW) 16:48:28 437.445
MOZHAYETS 4 30 Jan 16:55:29 17:00:01 58° 100° (E) 17:04:31
AO-7 30 Jan 17:10:16 17:16:29 21° 273° (W) 17:22:23 29.400- 29.500
JAS-2 30 Jan 17:10:23 17:14:48 25° 268° (W) 17:19:00 435.910
AUBIESAT-1 30 Jan 17:10:28 17:12:54 19° 300° (WNW) 17:15:17 437.475
SO-50 30 Jan 17:29:35 17:34:11 39° 40° (NE) 17:38:49 436.795
HO-68 30 Jan 17:31:45 17:34:51 14° 43° (NE) 17:38:15 435.675
O/OREOS (USA 219) 30 Jan 17:37:59 17:41:39 23° 311° (NW) 17:45:17 437.305
STRAND 1 30 Jan 18:00:19 18:03:44 18° 88° (E) 18:07:18 437.568
Cubesat XI-IV 30 Jan 18:01:03 18:06:13 51° 260° (W) 18:11:27 437.490
BRITE-PL 30 Jan 18:13:49 18:16:46 16° 55° (NE) 18:20:01 437.365/2234.400
YUBILEINY 30 Jan 18:15:02 18:21:49 28° 81° (E) 18:28:54 435.215
PRISM 30 Jan 18:15:15 18:19:11 39° 98° (E) 18:23:07 437.425
CUTE-I 30 Jan 18:21:00 18:25:54 36° 264° (W) 18:30:48 437.470
MOZHAYETS 4 30 Jan 18:33:36 18:36:53 19° 298° (WNW) 18:40:05
CUBESAT XI-V 30 Jan 18:52:21 18:57:04 72° 102° (ESE) 19:01:46 437.345
CANX-2 30 Jan 18:52:54 18:55:52 19° 63° (ENE) 18:58:54 2200.000
AAUSAT CUBESAT 2 30 Jan 18:59:53 19:01:48 13° 60° (ENE) 19:03:54 437.432
SO-50 30 Jan 19:10:11 19:14:49 41° 240° (WSW) 19:19:26 436.795
HO-68 30 Jan 19:14:17 19:21:07 51° 64° (ENE) 19:28:00 435.675
CUTE 1.7 + AOD 2 30 Jan 19:16:01 19:19:39 28° 67° (ENE) 19:23:19 437.475
CINEMA 3 30 Jan 19:17:39 19:20:41 17° 59° (ENE) 19:23:54 145.822/145.860
Oscar 11 30 Jan 19:25:10 19:27:11 13° 59° (ENE) 19:29:21 145.826/435.025
GOMX 1 30 Jan 19:36:22 19:41:19 48° 69° (ENE) 19:46:35 467.674
STRAND 1 30 Jan 19:38:23 19:43:31 69° 288° (WNW) 19:48:39 437.568
DOVE 4 30 Jan 19:40:58 19:45:44 40° 68° (ENE) 19:50:42 437.250
SEEDS 30 Jan 19:43:50 19:47:52 44° 71° (ENE) 19:51:56 437.485
BRITE-PL 30 Jan 19:49:14 19:54:25 81° 75° (ENE) 20:00:02 437.365/2234.400
PRISM 30 Jan 19:51:13 19:54:32 23° 295° (WNW) 19:57:46 437.425
UKube-1 30 Jan 20:00:28 20:03:22 18° 61° (ENE) 20:06:24 .
COMPASS 1 30 Jan 20:07:46 20:11:57 65° 74° (ENE) 20:16:09 437.405
HUMSAT D 30 Jan 20:10:08 20:11:23 11° 58° (ENE) 20:12:51 437.325/437.525
